Palmdale, CA

7:21 PM PST on February 22, 2017 (GMT -0800)
Palmdale Af Plant 42

Weather History for KPMD - June, 2014

Change the Weather History Date:

Friday, June 13, 2014

  Actual Average Record
Temperature  
Mean Temperature 75 °F 74 °F  
Max Temperature 87 °F 90 °F 107 °F (1940)
Min Temperature 62 °F 58 °F 41 °F (1952)
Degree Days  
Heating Degree Days 0 0  
Month to date heating degree days 0 6  
Since 1 June heating degree days 0 6  
Since 1 July heating degree days 2331 2924  
Cooling Degree Days 10 9  
Month to date cooling degree days 179 110  
Year to date cooling degree days 398 280  
Since 1 June cooling degree days 179 110  
Growing Degree Days 26 (Base 50)    
Moisture  
Dew Point 27 °F    
Average Humidity 21    
Maximum Humidity 34    
Minimum Humidity 7    
Precipitation  
Precipitation 0.00 in 0.00 in 0.00 in (2017)
Month to date precipitation 0.00 0.08  
Year to date precipitation 3.05 5.31  
Since 1 July precipitation 5.12  
Snow  
Snow 0.00 in - - ()
Month to date snowfall 0.0  
Since 1 June snowfall 0.0  
Since 1 July snowfall 0.0  
Snow Depth 0.00 in    
Sea Level Pressure  
Sea Level Pressure 29.85 in    
Wind  
Wind Speed 16 mph (WSW)    
Max Wind Speed 26 mph    
Max Gust Speed 33 mph    
Visibility 10 miles    
Events      
T = Trace of Precipitation, MM = Missing Value Source: NWS Daily Summary

Daily Weather History Graph

Daily Weather History Graph

Search for Another Location

Airport or City:

Trip Planner

Search our weather history database for the weather conditions in past years. The results will help you decide how hot, cold, wet, or windy it might be!

Date:

Astronomy

Jun. 13, 2014 Rise Set
Actual Time 5:38 AM PDT 8:06 PM PDT
Civil Twilight 5:09 AM PDT 8:35 PM PDT
Nautical Twilight 4:33 AM PDT 9:12 PM PDT
Astronomical Twilight 3:53 AM PDT 9:52 PM PDT
Moon 8:44 PM PDT (6/13) 6:19 AM PDT (6/13)
Length of Visible Light 15h 26m
Length of Day
14h 27m
Waxing Gibbous, 99% of the Moon is Illuminated
Jun 13
Waxing Gibbous
Jun 19
Last Quarter
Jun 27
New
Jul 5
First Quarter
Jul 12
Full

Hourly Weather History & Observations

Time (PDT) Temp. Dew Point Humidity Pressure Visibility Wind Dir Wind Speed Gust Speed Precip Events Conditions
12:53 AM 72.0 °F 19.0 °F 13% 29.84 in 10.0 mi West 10.4 mph - N/A   Clear
1:53 AM 69.1 °F 23.0 °F 18% 29.85 in 10.0 mi West 11.5 mph - N/A   Clear
2:53 AM 68.0 °F 23.0 °F 18% 29.84 in 10.0 mi WSW 15.0 mph - N/A   Clear
3:53 AM 69.1 °F 18.0 °F 14% 29.83 in 10.0 mi SW 16.1 mph - N/A   Clear
4:53 AM 64.9 °F 19.0 °F 17% 29.85 in 10.0 mi West 9.2 mph - N/A   Clear
5:53 AM 64.9 °F 23.0 °F 20% 29.85 in 10.0 mi Calm Calm - N/A   Clear
6:53 AM 66.9 °F 24.1 °F 20% 29.86 in 10.0 mi Calm Calm - N/A   Clear
7:33 AM 73.0 °F 15.1 °F 11% 29.93 in 10.0 mi WSW 18.4 mph - N/A   Clear
7:53 AM 75.2 °F 12.2 °F 9% 29.93 in 10.0 mi SW 17.3 mph - N/A   Clear
8:53 AM 78.1 °F 28.0 °F 16% 29.85 in 10.0 mi West 10.4 mph - N/A   Clear
9:53 AM 82.4 °F 26.6 °F 13% 29.92 in 10.0 mi WSW 17.3 mph - N/A   Clear
10:53 AM 84.0 °F 24.1 °F 11% 29.84 in 10.0 mi WSW 19.6 mph - N/A   Clear
11:53 AM 87.1 °F 18.0 °F 8% 29.83 in 10.0 mi WSW 18.4 mph 26.5 mph N/A   Clear
12:53 PM 86.0 °F 27.0 °F 12% 29.83 in 10.0 mi SW 20.7 mph 27.6 mph N/A   Clear
1:53 PM 86.0 °F 28.4 °F 12% 29.90 in 10.0 mi West 21.9 mph 29.9 mph N/A   Clear
3:53 PM 84.2 °F 33.8 °F 16% 29.89 in 10.0 mi WSW 21.9 mph - N/A   Clear
4:53 PM 84.0 °F 35.1 °F 17% 29.81 in 10.0 mi WSW 20.7 mph 27.6 mph N/A   Clear
5:53 PM 82.0 °F 37.9 °F 21% 29.80 in 10.0 mi SW 23.0 mph 28.8 mph N/A   Clear
6:53 PM 79.0 °F 34.0 °F 20% 29.81 in 10.0 mi SW 17.3 mph - N/A   Clear
7:53 PM 75.0 °F 39.0 °F 27% 29.81 in 10.0 mi WSW 15.0 mph - N/A   Clear
8:53 PM 72.0 °F 41.0 °F 33% 29.83 in 10.0 mi WSW 19.6 mph - N/A   Clear
9:53 PM 72.0 °F 32.0 °F 23% 29.84 in 10.0 mi West 18.4 mph - N/A   Clear
10:53 PM 71.1 °F 33.1 °F 25% 29.83 in 10.0 mi West 18.4 mph - N/A   Clear
11:53 PM 70.0 °F 33.1 °F 26% 29.83 in 10.0 mi WSW 13.8 mph - N/A   Clear